Location: Unspecified
(0.0000°N, 0.0000°E)
Time: 12:54:00
(UTC+02:00)

Haruka - Visible Passes

Search period start: 23 May 2017 00:00
Search period end: 02 June 2017 00:00
Orbit: 534 x 21223 km, 31.2° (Epoch: 22 May)

Date Brightness Start Highest point End Pass type
(mag) Time Alt. Az. Time Alt. Az. Time Alt. Az.
23 May 8.8 23:13:44 10° SW 02:15:22 80° W 04:24:27 10° NE visible
25 May 8.6 00:27:49 10° SW 03:18:58 59° W 05:33:28 10° NE visible
25 May 7.5 18:45:09 10° SW 19:03:49 31° SSE 23:26:24 10° ENE visible
26 May 8.4 01:47:53 10° WSW 04:15:03 38° W 06:41:40 10° NE visible
26 May 8.0 19:53:40 10° SW 20:44:07 42° SE 00:55:14 10° ENE visible
27 May 8.0 03:26:43 10° WSW 05:12:52 19° W 07:49:26 10° NNE visible
27 May 8.4 21:02:41 10° SW 23:52:37 65° E 02:11:59 10° NE visible
28 May 7.4 08:25:25 10° NW 08:49:28 19° NNW 08:57:10 10° NNE visible
28 May 8.7 22:12:40 10° SW 00:59:09 87° E 03:24:14 10° NE visible
29 May 8.7 23:24:29 10° SW 02:03:25 72° W 04:34:18 10° NE visible
30 May 7.1 17:47:10 10° SW 20:34:08 14° E 21:49:39 10° ENE visible
31 May 8.5 00:39:54 10° WSW 03:05:50 50° W 05:43:12 10° NE visible
31 May 7.6 18:55:15 10° SW 19:21:17 35° SSE 23:45:19 10° ENE visible
01 Jun 8.3 02:03:56 10° WSW 04:08:38 31° W 06:51:28 10° NE visible
